Altus, OK

5:34 AM CST on February 24, 2017 (GMT -0600)
Altus Municipal

Weather History for KAXS - November, 2012

Change the Weather History Date:

Sunday, November 11, 2012

  Actual Average (KLTS) Record (KLTS)
Temperature  
Mean Temperature 52 °F -  
Max Temperature 69 °F 61 °F 79 °F (2007)
Min Temperature 33 °F 40 °F 28 °F (1997)
Degree Days  
Heating Degree Days 13    
Growing Degree Days 2 (Base 50)    
Moisture  
Dew Point 41 °F    
Average Humidity 71    
Maximum Humidity 88    
Minimum Humidity 50    
Precipitation  
Precipitation 0.39 in - - ()
Sea Level Pressure  
Sea Level Pressure 30.01 in    
Wind  
Wind Speed 11 mph (North)    
Max Wind Speed 22 mph    
Max Gust Speed 32 mph    
Visibility 10 miles    
Events Rain , Thunderstorm    
Averages and records for this station are not official NWS values.
T = Trace of Precipitation, MM = Missing Value Source: NWS Daily Summary

Daily Weather History Graph

Daily Weather History Graph

Search for Another Location

Airport or City:

Trip Planner

Search our weather history database for the weather conditions in past years. The results will help you decide how hot, cold, wet, or windy it might be!

Date:

Astronomy

Nov. 11, 2012 Rise Set
Actual Time 7:07 AM CST 5:34 PM CST
Civil Twilight 6:41 AM CST 6:01 PM CST
Nautical Twilight 6:10 AM CST 6:31 PM CST
Astronomical Twilight 5:41 AM CST 7:01 PM CST
Moon 4:28 AM CST (11/11) 3:55 PM CST (11/11)
Length of Visible Light 11h 20m
Length of Day
10h 26m
Waning Crescent, 7% of the Moon is Illuminated
Nov 11
Waning Crescent
Nov 13
New
Nov 20
First Quarter
Nov 28
Full
Dec 6
Last Quarter

Hourly Weather History & Observations

Time (CST) Temp. Windchill Dew Point Humidity Pressure Visibility Wind Dir Wind Speed Gust Speed Precip Events Conditions
12:35 AM 69.8 °F - 53.6 °F 56% 29.73 in 10.0 mi SSW 19.6 mph 28.8 mph N/A   Clear
12:55 AM 68.0 °F - 55.4 °F 64% 29.73 in 10.0 mi SSW 15.0 mph - N/A Rain , Thunderstorm Light Thunderstorms and Rain
1:15 AM 68.0 °F - 55.4 °F 64% 29.73 in 10.0 mi SSW 21.9 mph 32.2 mph N/A Rain Light Rain
1:35 AM 66.2 °F - 57.2 °F 73% 29.73 in 10.0 mi West 16.1 mph - N/A Thunderstorm Thunderstorm
1:55 AM 60.8 °F - 48.2 °F 63% 29.77 in 5.0 mi NW 13.8 mph 21.9 mph 0.04 in Rain , Thunderstorm Heavy Thunderstorms and Rain
2:15 AM 59.0 °F - 50.0 °F 72% 29.77 in 10.0 mi NNW 9.2 mph 16.1 mph 0.02 in Rain Rain
2:35 AM 57.2 °F - 51.8 °F 82% 29.79 in 7.0 mi NW 10.4 mph - 0.06 in Rain Light Rain
2:55 AM 57.2 °F - 50.0 °F 77% 29.79 in 10.0 mi NNW 13.8 mph - 0.10 in Rain , Thunderstorm Thunderstorms and Rain
3:15 AM 53.6 °F - 50.0 °F 88% 29.78 in 5.0 mi North 6.9 mph - 0.07 in Rain Heavy Rain
3:35 AM 53.6 °F - 50.0 °F 88% 29.78 in 7.0 mi North 4.6 mph - 0.15 in Rain Light Rain
3:55 AM 53.6 °F - 50.0 °F 88% 29.78 in 7.0 mi ENE 3.5 mph - 0.18 in Rain Rain
4:15 AM 53.6 °F - 50.0 °F 88% 29.78 in 10.0 mi Calm Calm - N/A Rain Light Rain
4:35 AM 55.4 °F - 50.0 °F 82% 29.80 in 2.0 mi Calm Calm - 0.05 in Rain Heavy Rain
5:15 AM 55.4 °F - 50.0 °F 82% 29.82 in 10.0 mi Calm Calm - N/A Rain Light Rain
5:35 AM 55.4 °F - 51.8 °F 88% 29.83 in 10.0 mi WNW 5.8 mph - N/A   Mostly Cloudy
5:55 AM 55.4 °F - 51.8 °F 88% 29.84 in 10.0 mi NNW 3.5 mph - N/A   Mostly Cloudy
6:15 AM 55.4 °F - 51.8 °F 88% 29.83 in 10.0 mi North 3.5 mph - 0.02 in Rain Light Rain
6:35 AM 53.6 °F - 50.0 °F 88% 29.84 in 10.0 mi NNW 5.8 mph - 0.02 in   Scattered Clouds
6:55 AM 55.4 °F - 51.8 °F 88% 29.86 in 10.0 mi West 4.6 mph - 0.02 in   Scattered Clouds
7:35 AM 55.4 °F - 51.8 °F 88% 29.88 in 10.0 mi West 4.6 mph - N/A   Mostly Cloudy
8:15 AM 55.4 °F - 50.0 °F 82% 29.90 in 10.0 mi Calm Calm - N/A   Clear
8:35 AM 55.4 °F - 48.2 °F 77% 29.90 in 10.0 mi Calm Calm - N/A   Scattered Clouds
8:55 AM 55.4 °F - 46.4 °F 72% 29.92 in 10.0 mi Calm Calm - N/A   Scattered Clouds
9:15 AM 55.4 °F - 48.2 °F 77% 29.93 in 10.0 mi Calm Calm - N/A   Clear
9:35 AM 57.2 °F - 50.0 °F 77% 29.94 in 10.0 mi NW 4.6 mph - N/A   Clear
9:55 AM 55.4 °F - 50.0 °F 82% 29.95 in 10.0 mi Calm Calm - N/A   Clear
10:15 AM 55.4 °F - 41.0 °F 58% 29.96 in 10.0 mi ENE 6.9 mph - N/A   Clear
10:35 AM 55.4 °F - 42.8 °F 63% 29.98 in 10.0 mi Calm Calm - N/A   Clear
11:15 AM 55.4 °F - 46.4 °F 72% 29.99 in 10.0 mi North 21.9 mph 26.5 mph N/A   Clear
11:35 AM 51.8 °F - 42.8 °F 71% 29.99 in 10.0 mi NNE 17.3 mph - N/A   Clear
11:55 AM 50.0 °F - 42.8 °F 76% 29.99 in 10.0 mi North 18.4 mph - N/A   Scattered Clouds
12:15 PM 50.0 °F - 41.0 °F 71% 30.00 in 10.0 mi North 17.3 mph - N/A   Mostly Cloudy
12:35 PM 48.2 °F - 39.2 °F 71% 30.01 in 10.0 mi North 19.6 mph - N/A   Mostly Cloudy
1:15 PM 46.4 °F 39.0 °F 37.4 °F 71% 30.02 in 10.0 mi North 19.6 mph - N/A   Scattered Clouds
1:35 PM 48.2 °F - 37.4 °F 66% 30.03 in 10.0 mi North 20.7 mph 26.5 mph N/A   Clear
1:55 PM 50.0 °F - 35.6 °F 58% 30.04 in 10.0 mi North 19.6 mph 24.2 mph N/A   Clear
2:15 PM 50.0 °F - 35.6 °F 58% 30.04 in 10.0 mi North 17.3 mph 24.2 mph N/A   Clear
2:35 PM 50.0 °F - 33.8 °F 54% 30.04 in 10.0 mi North 16.1 mph - N/A   Clear
2:55 PM 50.0 °F - 33.8 °F 54% 30.05 in 10.0 mi North 17.3 mph - N/A   Clear
3:15 PM 50.0 °F - 33.8 °F 54% 30.06 in 10.0 mi North 17.3 mph - N/A   Clear
3:35 PM 51.8 °F - 33.8 °F 50% 30.06 in 10.0 mi North 17.3 mph - N/A   Clear
4:15 PM 50.0 °F - 33.8 °F 54% 30.09 in 10.0 mi North 18.4 mph - N/A   Clear
4:35 PM 50.0 °F - 32.0 °F 50% 30.10 in 10.0 mi North 16.1 mph 23.0 mph N/A   Clear
5:15 PM 46.4 °F 40.1 °F 32.0 °F 57% 30.13 in 10.0 mi North 15.0 mph - N/A   Clear
5:35 PM 46.4 °F 40.7 °F 32.0 °F 57% 30.14 in 10.0 mi North 12.7 mph - N/A   Clear
6:15 PM 44.6 °F 38.8 °F 32.0 °F 61% 30.17 in 10.0 mi North 11.5 mph - N/A   Clear
6:35 PM 42.8 °F 36.6 °F 32.0 °F 66% 30.18 in 10.0 mi NNE 11.5 mph - N/A   Clear
6:55 PM 42.8 °F 36.6 °F 32.0 °F 66% 30.20 in 10.0 mi North 11.5 mph - N/A   Clear
7:15 PM 42.8 °F 37.0 °F 30.2 °F 61% 30.21 in 10.0 mi North 10.4 mph - N/A   Clear
7:35 PM 41.0 °F 34.7 °F 30.2 °F 65% 30.22 in 10.0 mi North 10.4 mph - N/A   Clear
8:15 PM 41.0 °F 33.5 °F 28.4 °F 61% 30.24 in 10.0 mi North 13.8 mph - N/A   Clear
8:35 PM 41.0 °F 35.2 °F 28.4 °F 61% 30.26 in 10.0 mi NNE 9.2 mph - N/A   Clear
9:15 PM 39.2 °F 32.5 °F 26.6 °F 61% 30.28 in 10.0 mi North 10.4 mph - N/A   Clear
9:35 PM 37.4 °F 31.4 °F 26.6 °F 65% 30.29 in 10.0 mi North 8.1 mph - N/A   Clear
9:55 PM 37.4 °F - 26.6 °F 65% 30.31 in 10.0 mi Calm Calm - N/A   Clear
10:15 PM 37.4 °F - 26.6 °F 65% 30.31 in 10.0 mi Calm Calm - N/A   Clear
10:35 PM 35.6 °F - 26.6 °F 70% 30.32 in 10.0 mi Calm Calm - N/A   Clear
10:55 PM 35.6 °F - 28.4 °F 75% 30.33 in 10.0 mi Calm Calm - N/A   Clear
11:15 PM 35.6 °F - 30.2 °F 81% 30.33 in 10.0 mi Calm Calm - N/A   Clear
11:35 PM 35.6 °F - 30.2 °F 81% 30.33 in 10.0 mi Calm Calm - N/A   Clear
11:55 PM 33.8 °F - 30.2 °F 87% 30.34 in 10.0 mi Calm Calm - N/A   Clear